Location: Newark
(41.6500°N, 71.4833°W)
Time: 20:18:28
(UTC+00:00)

Transit 2A Rocket - Pass Details

Date: 04 February 2020
Orbit: 591 x 912 km, 66.7° (Epoch: 22 February)

Event Time Altitude Azimuth Distance (km) Brightness Sun altitude
Rises 08:50:56 0° 252° (WSW) 2,820 - -34.7°
Reaches altitude 10° 08:53:49 10° 273° (W) 1,923 - -34.2°
Maximum altitude 08:56:42 17° 316° (NW) 1,521 - -33.6°
Drops below altitude 10° 08:59:38 10° 358° (N) 1,968 - -33.1°
Exits shadow 09:01:25 - 12° (NNE) 2,499 7.9 -32.8°
Sets 09:02:38 0° 18° (NNE) 2,916 8.3 -32.5°
